STARLINK-37905

Last updated on Sun Aug 09 2026 00:02:04 GMT+0000 (Coordinated Universal Time)

1 69946U 26157D 26220.58335648 -.00005051 00000+0 -82800-4 0 9993 2 69946 53.1588 174.8276 0000977 97.9687 34.6200 15.49312651 6086
UTC large
Height (km)
Speed (km/s)
/
Latitude / Longitude
Inclination (degrees)
Orbital Period (minutes)
Azimuth
Elevation
Range (km)
Doppler Factor

Next 0 passes for location: London (51.5072 / 0.1276)

No passes found over London.
STARLINK-37905